Location: Gellin
(53.4498°N, 14.3207°E)
Time: 01:52:30
(UTC+00:00)

Cosmos 2369 Rocket - Pass Details

Date: 03 March 2021
Orbit: 829 x 852 km, 71.0° (Epoch: 11 April)

Event Time Altitude Azimuth Distance (km) Brightness Sun altitude
Rises 19:43:49 0° 326° (NW) 3,384 6.3 -26.7°
Reaches altitude 10° 19:46:40 10° 339° (NNW) 2,449 5.2 -27.1°
Enters shadow 19:51:08 26° 32° (NNE) 1,587 3.5 -27.7°
